Location: Rockford
(42.2710°N, 89.0940°W)
Time: 19:21:10
(UTC-05:00)

SPOT 5 - Visible Passes

Search period start: 01 October 2014 00:00
Search period end: 11 October 2014 00:00
Orbit: 824 x 826 km, 98.5° (Epoch: 01 October)

Date Brightness Start Highest point End Pass type
(mag) Time Alt. Az. Time Alt. Az. Time Alt. Az.
01 Oct 4.8 21:09:15 21° NNE 21:09:15 21° NNE 21:11:27 10° N visible
01 Oct 5.7 22:50:44 15° NW 22:50:44 15° NW 22:51:48 10° NNW visible
02 Oct 5.0 20:49:48 17° NNE 20:49:48 17° NNE 20:51:38 10° NNE visible
02 Oct 5.5 22:31:16 18° NNW 22:31:16 18° NNW 22:32:42 10° NNW visible
03 Oct 5.2 20:30:21 13° NE 20:30:21 13° NE 20:31:32 10° NNE visible
03 Oct 5.3 22:11:49 20° NNW 22:11:49 20° NNW 22:13:27 10° NNW visible
04 Oct 5.1 21:52:22 21° N 21:52:22 21° N 21:54:05 10° N visible
05 Oct 5.1 21:32:55 20° N 21:32:55 20° N 21:34:37 10° N visible
06 Oct 5.1 21:13:27 18° NNE 21:13:27 18° NNE 21:15:00 10° N visible
06 Oct 6.0 22:54:55 11° NW 22:54:55 11° NW 22:55:12 10° NNW visible
07 Oct 5.2 20:54:00 15° NNE 20:54:00 15° NNE 20:55:14 10° NNE visible
07 Oct 5.8 22:35:28 14° NNW 22:35:28 14° NNW 22:36:09 10° NNW visible
08 Oct 5.3 20:34:33 12° NNE 20:34:33 12° NNE 20:35:13 10° NNE visible
08 Oct 5.6 22:16:01 15° NNW 22:16:01 15° NNW 22:16:56 10° NNW visible
09 Oct 5.5 21:56:33 16° N 21:56:33 16° N 21:57:35 10° N visible
10 Oct 5.4 21:37:06 16° N 21:37:06 16° N 21:38:08 10° N visible
